Location: Beddau
(51.5575°N, 3.3561°W)
Time: 18:07:11
(UTC+00:00)

Cosmos 2333 - Pass Details

Date: 03 March 2021
Orbit: 829 x 867 km, 70.9° (Epoch: 13 April)

Event Time Altitude Azimuth Distance (km) Brightness Sun altitude
Rises 20:14:11 0° 204° (SSW) 3,378 7.4 -21.8°
Reaches altitude 10° 20:16:36 10° 203° (SSW) 2,452 6.7 -22.2°
Maximum altitude 20:22:13 80° 118° (ESE) 866 4.0 -23.0°
Drops below altitude 10° 20:27:58 10° 32° (NNE) 2,494 6.5 -23.8°
Sets 20:30:26 0° 32° (NNE) 3,440 7.3 -24.2°
